Location: Simi Valley
(34.2690°N, 118.7810°W)
Time: 03:32:00
(UTC-07:00)

SAR-Lupe-1 - Visible Passes

Search period start: 27 April 2015 00:00
Search period end: 07 May 2015 00:00
Orbit: 481 x 485 km, 98.1° (Epoch: 28 July)

Date Brightness Start Highest point End Pass type
(mag) Time Alt. Az. Time Alt. Az. Time Alt. Az.
27 Apr 4.5 04:44:52 10° N 04:48:18 43° WNW 04:49:10 35° WSW visible
28 Apr 4.0 04:20:01 10° NNE 04:23:38 79° ESE 04:24:18 56° S visible
29 Apr 5.5 03:55:37 10° NNE 03:58:52 32° E 03:59:25 31° ESE visible
29 Apr 6.2 05:30:29 10° NW 05:31:58 12° WNW 05:33:16 10° W visible
30 Apr 6.7 03:31:54 10° ENE 03:33:59 15° E 03:34:33 15° ESE visible
30 Apr 5.3 05:04:23 10° NNW 05:07:23 24° WNW 05:08:53 18° WSW visible
01 May 4.2 04:39:14 10° N 04:42:46 55° WNW 04:44:00 34° SW visible
02 May 4.4 04:14:31 10° NNE 04:18:04 60° E 04:19:07 40° SSE visible
03 May 5.9 03:50:15 10° NE 03:53:16 26° E 03:54:14 23° ESE visible
03 May 6.0 05:24:19 10° NW 05:26:26 15° WNW 05:28:25 10° WSW visible
04 May 6.9 03:26:59 10° ENE 03:28:21 12° E 03:29:21 11° ESE visible
04 May 5.0 04:58:39 10° N 05:01:51 30° WNW 05:03:41 19° WSW visible
05 May 4.0 04:33:37 10° N 04:37:12 71° WNW 04:38:48 31° SSW visible
06 May 4.9 04:09:01 10° NNE 04:12:29 46° E 04:13:54 29° SSE visible
